Weather in Kano

Nigeria     11˚59′28″N   8˚32′01″E
temp.,
°C
wind,
m/s
gust,
m/s
humid.,
%
clouds,
%
prec.,
mm/h
press.,
hPa
HPBL,
m
1 december, tue
tue101:00+23˚ne47150 0.0 1014155
04:00+20˚ene46177 0.0 1013126
07:00+19˚e341932 0.0 101599
10:00+27˚e57130 0.0 1015583
13:00+33˚ene6890 0.0 10121480
16:00+34˚ene5790 0.0 10091834
19:00+27˚ne36150 0.0 1012138
22:00+25˚ene36160 0.0 1014126
2 december, wed
wed201:00+24˚ne48180 0.0 1013205
04:00+21˚ne46210 0.0 1013130
07:00+20˚ene35240 0.0 1014120
10:00+27˚e57160 0.0 1014578
13:00+33˚ene56110 0.0 10111367
16:00+34˚ene56110 0.0 10091854
19:00+28˚ne36140 0.0 1011141
22:00+26˚ne46150 0.0 1014134
3 december, thu
thu301:00+23˚ne49130 0.0 1013177
04:00+21˚ene46130 0.0 1013131
07:00+19˚e34170 0.0 101599
10:00+27˚ene461239 0.0 1015502
13:00+33˚ene571119 0.0 10121241
16:00+34˚ene57110 0.0 10091858
19:00+27˚ne351610 0.0 1012125
22:00+26˚ne471710 0.0 1014137
4 december, fri
fri401:00+23˚ne481815 0.0 1013182
04:00+21˚e371774 0.0 1014141
07:00+20˚e351975 0.0 1015114
10:00+27˚e47140 0.0 1015562
13:00+32˚ene56110 0.0 10121176
16:00+33˚ene46120 0.0 10091692
19:00+27˚ne24180 0.0 101279
22:00+24˚ene24200 0.0 101374
5 december, sat
sat501:00+22˚ene23220 0.0 101362
04:00+21˚ene242474 0.0 101275
07:00+20˚e342642 0.0 101493
10:00+28˚e45160 0.0 1014485
13:00+33˚ene45130 0.0 10111285
16:00+34˚ene441316 0.0 10091971
19:00+27˚ne241915 0.0 101163
22:00+25˚ne23210 0.0 101348